Home > Weather > Rouen > Past weeks

Flag for France Past Weather in Rouen, Upper Normandy, France — Yesterday and Last 2 Weeks

Now
55 °F

Clear.


Feels Like: 55 °F
Forecast: 56 / 73 °F
Wind: 3 mph from Northwest

Location: Rouen Airport

Current Time: Jul 24, 2016 at 3:08:10 AM

Latest Report: Jul 24, 2016 at 2:30 AM


Visibility: 10 mi

Pressure: 30.18 "Hg

Humidity: 88%

Dew Point: 52 °F

Location of RouenLocation

Past Weather in Rouen — Graph

°F

Rouen Temperature Yesterday

Maximum temperature yesterday: 75 °F (at 3:00 PM)
Minimum temperature yesterday: 55 °F (at 5:00 AM)
Average temperature yesterday: 66 °F

High & Low Weather Summary for the Past Weeks

 TemperatureHumidityPressure
High93 °F (Jul 19, 3:30 PM)100% (Jul 10, 6:00 AM)30.36 "Hg (Jul 10, 6:00 AM)
Low46 °F (Jul 15, 5:00 AM)34% (Jul 19, 2:30 PM)29.86 "Hg (Jul 10, 3:30 PM)
Average66 °F71%30.10 "Hg
* Reported Jul 9 2:00 AM — Jul 24 2:00 AM, Rouen, Weather by CustomWeather, © 2016

Note: Actual official high and low records may vary slightly from our data, if they occured in-between our weather recording intervals... More about our weather records

Advertising

Rouen Weather History for the Previous 24 Hours

Scroll right to see more
 ConditionsComfort  
Time TempWeatherWind HumidityBarometerVisibility
2:00 AM
Sun, Jul 24
59 °FClear.5 mph77%30.18 "Hg10 mi
1:30 AM57 °FClear.2 mph88%30.18 "Hg10 mi
1:00 AM57 °FClear.2 mph88%30.18 "Hg10 mi
12:30 AM61 °FClear.3 mph77%30.18 "Hg10 mi
12:00 AM63 °FClear.5 mph77%30.18 "Hg10 mi
11:30 PM
Sat, Jul 23
63 °FClear.5 mph77%30.18 "Hg10 mi
11:00 PM63 °FClear.5 mph77%30.18 "Hg10 mi
10:30 PM64 °FSunny.6 mph73%30.18 "Hg10 mi
10:00 PM64 °FSunny.6 mph73%30.18 "Hg10 mi
9:30 PM68 °FSunny.7 mph69%30.18 "Hg10 mi
9:00 PM68 °FSunny.8 mph69%30.15 "Hg10 mi
8:30 PM72 °FPassing clouds.8 mph57%30.15 "HgN/A
8:00 PM72 °FSunny.8 mph57%30.15 "Hg10 mi
7:30 PM73 °FPassing clouds.9 mph57%30.15 "HgN/A
7:00 PM73 °FPassing clouds.9 mph57%30.15 "HgN/A
6:30 PM73 °FPartly sunny.10 mph61%30.15 "HgN/A
6:00 PM73 °FPartly sunny.10 mph57%30.15 "HgN/A
5:30 PM75 °FScattered clouds.10 mph57%30.15 "HgN/A
5:00 PM75 °FScattered clouds.12 mph61%30.15 "HgN/A
4:30 PM75 °FBroken clouds.9 mph61%30.15 "HgN/A
4:00 PM73 °FPassing clouds.9 mph57%30.15 "HgN/A
3:30 PM75 °FOvercast.10 mph57%30.15 "HgN/A
3:00 PM75 °FMore clouds than sun.9 mph57%30.15 "HgN/A
2:30 PM73 °FBroken clouds.7 mph57%30.15 "HgN/A
2:00 PM73 °FBroken clouds.8 mph61%30.15 "HgN/A
1:30 PM73 °FBroken clouds.8 mph61%30.15 "HgN/A
1:00 PM73 °FBroken clouds.7 mph61%30.15 "HgN/A
12:30 PM73 °FPartly sunny.8 mph61%30.15 "HgN/A
12:00 PM73 °FScattered clouds.7 mph61%30.15 "HgN/A
11:30 AM72 °FPassing clouds.7 mph69%30.15 "HgN/A
11:00 AM70 °FPassing clouds.8 mph69%30.15 "HgN/A
10:30 AM68 °FPassing clouds.8 mph69%30.15 "HgN/A
10:00 AM66 °FClear.7 mph73%30.15 "Hg6 mi
9:30 AM64 °FClear.8 mph83%30.15 "Hg6 mi
9:00 AM63 °FClear.7 mph83%30.12 "Hg6 mi
8:30 AM61 °FClear.7 mph88%30.12 "Hg5 mi
8:00 AM59 °FClear.6 mph94%30.12 "Hg4 mi
7:30 AM57 °FFog.5 mph94%30.12 "Hg3 mi
7:00 AM57 °FFog.5 mph94%30.12 "Hg3 mi
6:30 AM55 °FFog.6 mph94%30.12 "Hg3 mi
6:00 AM55 °FClear.6 mph94%30.12 "Hg5 mi
5:30 AM57 °FClear.6 mph88%30.12 "Hg5 mi
5:00 AM55 °FClear.6 mph94%30.12 "Hg10 mi
4:30 AM57 °FClear.5 mph88%30.12 "Hg10 mi
4:00 AM57 °FClear.5 mph88%30.12 "Hg10 mi
3:30 AM57 °FClear.5 mph88%30.12 "Hg10 mi
3:00 AM57 °FClear.3 mph88%30.12 "Hg10 mi
Weather by CustomWeather, © 2016

See weather overviewHow to use our weather pages